TSC738 CYUL-TFFF

Flight info

Callsign TSC738
Flight time 4h 27m
Altitude 32000
Route DCT FAWNS DCT BUGSY DCT PONCT DCT JFK DCT SHIPP Y483 SHERL DCT ICCEY Y488 OHRYN Y482 SQUAD/M078F320 DCT DARUX L456 HANCY/N0465F320 L456 THANK DCT ELOPO UB520 ANU UA312 PPR DCT KATIM KATIM2X
Aircraft A321/M-SDE3FGHIRWY/LB1

Departure

Time 2026-05-06 15:49
Airport Montreal / Pierre Elliott Trudeau International Airport (CYUL)

Arrival

Time 2026-05-06 20:17
Airport Martinique Aimé Césaire International Airport (TFFF)
Time Latitude Longitude Altitude Speed Heading
2026-05-06 15:19 45.45968 -73.75824 107 ft 0 kts 144°
2026-05-06 15:32 45.45973 -73.75828 106 ft 2 kts 143°
2026-05-06 15:32 45.45986 -73.75843 106 ft 2 kts 145°
2026-05-06 15:32 45.45999 -73.75858 105 ft 2 kts 144°
2026-05-06 15:32 45.46011 -73.75873 105 ft 2 kts 143°
2026-05-06 15:33 45.46024 -73.75889 103 ft 2 kts 139°
2026-05-06 15:33 45.46035 -73.75906 104 ft 2 kts 133°
2026-05-06 15:33 45.46045 -73.75924 102 ft 2 kts 121°
2026-05-06 15:33 45.46052 -73.75946 103 ft 2 kts 95°
2026-05-06 15:34 45.46052 -73.75962 101 ft 1 kts 88°
2026-05-06 15:34 45.46051 -73.75963 101 ft 0 kts 89°
2026-05-06 15:36 45.46051 -73.75953 102 ft 3 kts 89°
2026-05-06 15:37 45.46052 -73.75927 102 ft 2 kts 88°
2026-05-06 15:37 45.46053 -73.75895 104 ft 8 kts 88°
2026-05-06 15:37 45.46057 -73.75775 104 ft 14 kts 87°
2026-05-06 15:37 45.46061 -73.75646 104 ft 12 kts 88°
2026-05-06 15:38 45.46064 -73.75549 105 ft 8 kts 88°
2026-05-06 15:38 45.46065 -73.75489 106 ft 4 kts 87°
2026-05-06 15:38 45.46069 -73.75423 107 ft 12 kts 79°
2026-05-06 15:38 45.46132 -73.75334 107 ft 11 kts 59°
2026-05-06 15:39 45.46142 -73.75243 108 ft 8 kts 86°
2026-05-06 15:39 45.46146 -73.75140 109 ft 15 kts 88°
2026-05-06 15:39 45.46150 -73.75022 109 ft 21 kts 88°
2026-05-06 15:39 45.46157 -73.74770 111 ft 27 kts 89°
2026-05-06 15:40 45.46138 -73.74548 107 ft 22 kts 109°
2026-05-06 15:40 45.46129 -73.74343 109 ft 20 kts 88°
2026-05-06 15:40 45.46137 -73.74159 107 ft 18 kts 85°
2026-05-06 15:40 45.46182 -73.74005 106 ft 16 kts 49°
2026-05-06 15:41 45.46252 -73.73910 107 ft 12 kts 42°
2026-05-06 15:41 45.46307 -73.73838 107 ft 10 kts 43°
2026-05-06 15:41 45.46376 -73.73747 109 ft 18 kts 43°
2026-05-06 15:41 45.46486 -73.73604 113 ft 25 kts 42°
2026-05-06 15:42 45.46608 -73.73444 111 ft 23 kts 42°
2026-05-06 15:42 45.46719 -73.73299 112 ft 21 kts 44°
2026-05-06 15:42 45.46815 -73.73171 113 ft 17 kts 42°
2026-05-06 15:42 45.46894 -73.73067 115 ft 14 kts 42°
2026-05-06 15:43 45.46954 -73.72988 115 ft 12 kts 43°
2026-05-06 15:43 45.47023 -73.72898 119 ft 13 kts 42°
2026-05-06 15:43 45.47083 -73.72819 118 ft 11 kts 42°
2026-05-06 15:43 45.47131 -73.72757 120 ft 10 kts 43°
2026-05-06 15:44 45.47202 -73.72666 120 ft 15 kts 41°
2026-05-06 15:44 45.47276 -73.72573 118 ft 13 kts 43°
2026-05-06 15:44 45.47334 -73.72489 119 ft 10 kts 45°
2026-05-06 15:44 45.47379 -73.72429 119 ft 8 kts 43°
2026-05-06 15:45 45.47430 -73.72361 117 ft 12 kts 43°
2026-05-06 15:45 45.47496 -73.72276 120 ft 13 kts 42°
2026-05-06 15:45 45.47559 -73.72196 123 ft 11 kts 43°
2026-05-06 15:45 45.47618 -73.72118 120 ft 13 kts 41°
2026-05-06 15:46 45.47679 -73.72039 125 ft 11 kts 43°
2026-05-06 15:46 45.47730 -73.71972 129 ft 9 kts 42°
2026-05-06 15:46 45.47772 -73.71917 124 ft 8 kts 43°
2026-05-06 15:46 45.47804 -73.71858 126 ft 7 kts 65°
2026-05-06 15:47 45.47799 -73.71794 125 ft 7 kts 117°
2026-05-06 15:47 45.47767 -73.71737 120 ft 8 kts 129°
2026-05-06 15:47 45.47733 -73.71680 123 ft 7 kts 131°
2026-05-06 15:47 45.47700 -73.71643 126 ft 5 kts 162°
2026-05-06 15:48 45.47668 -73.71653 124 ft 4 kts 210°
2026-05-06 15:48 45.47656 -73.71667 125 ft 0 kts 220°
2026-05-06 15:48 45.47636 -73.71691 124 ft 25 kts 221°
2026-05-06 15:48 45.47320 -73.72103 115 ft 96 kts 223°
2026-05-06 15:49 45.46689 -73.72927 113 ft 148 kts 222°
2026-05-06 15:49 45.45834 -73.74045 286 ft 174 kts 222°
2026-05-06 15:49 45.44972 -73.75153 1151 ft 164 kts 221°
2026-05-06 15:49 45.44109 -73.76222 1816 ft 165 kts 221°
2026-05-06 15:50 45.43226 -73.77298 2213 ft 173 kts 224°
2026-05-06 15:50 45.42256 -73.78529 2351 ft 195 kts 223°
2026-05-06 15:50 45.41055 -73.79485 2630 ft 207 kts 202°
2026-05-06 15:50 45.39724 -73.80258 3108 ft 208 kts 206°
2026-05-06 15:51 45.38378 -73.81207 3401 ft 219 kts 210°
2026-05-06 15:51 45.36978 -73.82259 3548 ft 243 kts 210°
2026-05-06 15:51 45.35424 -73.83421 3902 ft 259 kts 210°
2026-05-06 15:51 45.33778 -73.84631 4601 ft 264 kts 210°
2026-05-06 15:52 45.32138 -73.85820 5365 ft 264 kts 209°
2026-05-06 15:52 45.30508 -73.86991 6206 ft 261 kts 209°
2026-05-06 15:52 45.28909 -73.88131 6973 ft 259 kts 209°
2026-05-06 15:52 45.27277 -73.89295 7726 ft 259 kts 209°
2026-05-06 15:53 45.25670 -73.90440 8433 ft 259 kts 209°
2026-05-06 15:53 45.24062 -73.91584 9153 ft 259 kts 209°
2026-05-06 15:53 45.22450 -73.92730 9859 ft 259 kts 209°
2026-05-06 15:53 45.20825 -73.93885 10254 ft 270 kts 209°
2026-05-06 15:54 45.19086 -73.95120 10384 ft 289 kts 209°
2026-05-06 15:54 45.17233 -73.96435 10508 ft 308 kts 209°
2026-05-06 15:54 45.15263 -73.97831 10629 ft 325 kts 209°
2026-05-06 15:54 45.13186 -73.99303 10797 ft 340 kts 209°
2026-05-06 15:55 45.11054 -74.00806 11244 ft 345 kts 209°
2026-05-06 15:55 45.08895 -74.02324 11797 ft 347 kts 209°
2026-05-06 15:55 45.06727 -74.03846 12352 ft 349 kts 209°
2026-05-06 15:55 45.04567 -74.05360 12908 ft 351 kts 209°
2026-05-06 15:56 45.02373 -74.06900 13437 ft 353 kts 210°
2026-05-06 15:56 45.00147 -74.08380 13919 ft 357 kts 205°
2026-05-06 15:56 44.97725 -74.09340 14354 ft 365 kts 194°
2026-05-06 15:56 44.95190 -74.09833 14790 ft 368 kts 193°
2026-05-06 15:57 44.92639 -74.10311 15230 ft 371 kts 193°
2026-05-06 15:57 44.90072 -74.10793 15646 ft 374 kts 193°
2026-05-06 15:57 44.87489 -74.11278 16053 ft 376 kts 193°
2026-05-06 15:57 44.84881 -74.11769 16472 ft 379 kts 193°
2026-05-06 15:58 44.82261 -74.12262 16885 ft 382 kts 193°
2026-05-06 15:58 44.79614 -74.12762 17293 ft 384 kts 193°
2026-05-06 15:58 44.76952 -74.13265 17698 ft 387 kts 193°
2026-05-06 15:58 44.74276 -74.13768 18102 ft 390 kts 193°
2026-05-06 15:59 44.71537 -74.13957 18442 ft 399 kts 184°
2026-05-06 15:59 44.68751 -74.13546 18772 ft 405 kts 179°
2026-05-06 15:59 44.65947 -74.13053 19122 ft 407 kts 179°
2026-05-06 15:59 44.63132 -74.12569 19484 ft 409 kts 179°
2026-05-06 16:00 44.60303 -74.12089 19832 ft 411 kts 179°
2026-05-06 16:00 44.57450 -74.11610 20178 ft 413 kts 179°
2026-05-06 16:00 44.54589 -74.11132 20502 ft 415 kts 179°
2026-05-06 16:00 44.51711 -74.10651 20843 ft 418 kts 179°
2026-05-06 16:01 44.48818 -74.10162 21165 ft 420 kts 179°
2026-05-06 16:01 44.45911 -74.09665 21496 ft 422 kts 179°
2026-05-06 16:01 44.42985 -74.09162 21827 ft 424 kts 179°
2026-05-06 16:01 44.40046 -74.08656 22162 ft 426 kts 179°
2026-05-06 16:02 44.37096 -74.08145 22490 ft 428 kts 179°
2026-05-06 16:02 44.34135 -74.07637 22831 ft 430 kts 179°
2026-05-06 16:02 44.31121 -74.07125 23184 ft 431 kts 179°
2026-05-06 16:02 44.28178 -74.06628 23505 ft 433 kts 179°
2026-05-06 16:03 44.25185 -74.06123 23796 ft 434 kts 179°
2026-05-06 16:03 44.22183 -74.05620 24095 ft 434 kts 179°
2026-05-06 16:03 44.19181 -74.05119 24395 ft 435 kts 179°
2026-05-06 16:03 44.16169 -74.04616 24688 ft 435 kts 179°
2026-05-06 16:04 44.13122 -74.04101 24988 ft 436 kts 179°
2026-05-06 16:04 44.10106 -74.03589 25285 ft 437 kts 179°
2026-05-06 16:04 44.07083 -74.03079 25579 ft 438 kts 179°
2026-05-06 16:04 44.04048 -74.02568 25856 ft 439 kts 179°
2026-05-06 16:05 44.01058 -74.02064 26220 ft 437 kts 179°
2026-05-06 16:05 43.98013 -74.01548 26628 ft 435 kts 179°
2026-05-06 16:05 43.95004 -74.01039 27004 ft 434 kts 179°
2026-05-06 16:05 43.92008 -74.00539 27371 ft 432 kts 180°
2026-05-06 16:06 43.89029 -74.00045 27715 ft 431 kts 180°
2026-05-06 16:06 43.86053 -73.99551 28055 ft 430 kts 180°
2026-05-06 16:06 43.83108 -73.99061 28392 ft 429 kts 180°
2026-05-06 16:06 43.80128 -73.98568 28740 ft 428 kts 180°
2026-05-06 16:07 43.77167 -73.98078 29073 ft 427 kts 180°
2026-05-06 16:07 43.74226 -73.97593 29386 ft 426 kts 180°
2026-05-06 16:07 43.71282 -73.97105 29701 ft 426 kts 181°
2026-05-06 16:07 43.68343 -73.96616 29990 ft 425 kts 181°
2026-05-06 16:08 43.65405 -73.96124 30242 ft 425 kts 181°
2026-05-06 16:08 43.62477 -73.95636 30507 ft 424 kts 181°
2026-05-06 16:08 43.59550 -73.95150 30768 ft 423 kts 181°
2026-05-06 16:08 43.56626 -73.94668 31032 ft 422 kts 181°
2026-05-06 16:09 43.53708 -73.94191 31279 ft 422 kts 181°
2026-05-06 16:09 43.50804 -73.93721 31534 ft 421 kts 181°
2026-05-06 16:09 43.47894 -73.93249 31756 ft 422 kts 181°
2026-05-06 16:09 43.44971 -73.92772 31828 ft 421 kts 181°
2026-05-06 16:10 43.39151 -73.91818 31835 ft 421 kts 181°
2026-05-06 16:10 43.33330 -73.90857 31832 ft 422 kts 181°
2026-05-06 16:11 43.27490 -73.89895 31832 ft 423 kts 181°
2026-05-06 16:11 43.21627 -73.88939 31829 ft 424 kts 181°
2026-05-06 16:12 43.15771 -73.87984 31820 ft 424 kts 181°
2026-05-06 16:12 43.10856 -73.87183 31816 ft 425 kts 181°
2026-05-06 16:13 43.04980 -73.86228 31812 ft 426 kts 181°
2026-05-06 16:13 42.99082 -73.85274 31813 ft 427 kts 181°
2026-05-06 16:14 42.93181 -73.84316 31805 ft 428 kts 181°
2026-05-06 16:14 42.87267 -73.83364 31800 ft 429 kts 181°
2026-05-06 16:15 42.81315 -73.82405 31787 ft 431 kts 181°
2026-05-06 16:15 42.75358 -73.81455 31790 ft 431 kts 182°
2026-05-06 16:16 42.69422 -73.81226 31794 ft 427 kts 187°
2026-05-06 16:16 42.63455 -73.81109 31799 ft 428 kts 187°
2026-05-06 16:17 42.57490 -73.80976 31800 ft 429 kts 187°
2026-05-06 16:17 42.51516 -73.80848 31802 ft 429 kts 187°
2026-05-06 16:18 42.45536 -73.80730 31809 ft 430 kts 187°
2026-05-06 16:18 42.39559 -73.80616 31804 ft 430 kts 187°
2026-05-06 16:19 42.33579 -73.80497 31800 ft 430 kts 187°
2026-05-06 16:19 42.27588 -73.80373 31795 ft 430 kts 187°
2026-05-06 16:20 42.21586 -73.80258 31791 ft 431 kts 186°
2026-05-06 16:20 42.15592 -73.80139 31791 ft 432 kts 186°
2026-05-06 16:21 42.09573 -73.80013 31787 ft 433 kts 186°
2026-05-06 16:21 42.03541 -73.79886 31790 ft 434 kts 186°
2026-05-06 16:22 41.97497 -73.79766 31793 ft 435 kts 186°
2026-05-06 16:22 41.91448 -73.79652 31804 ft 436 kts 185°
2026-05-06 16:23 41.85428 -73.79528 31810 ft 437 kts 185°
2026-05-06 16:23 41.79319 -73.79405 31822 ft 438 kts 185°
2026-05-06 16:24 41.73194 -73.79281 31829 ft 439 kts 185°
2026-05-06 16:24 41.67029 -73.79161 31831 ft 440 kts 185°
2026-05-06 16:25 41.60935 -73.79046 31828 ft 441 kts 185°
2026-05-06 16:25 41.54758 -73.78923 31833 ft 442 kts 185°
2026-05-06 16:26 41.48586 -73.78794 31825 ft 443 kts 185°
2026-05-06 16:26 41.42419 -73.78679 31831 ft 444 kts 185°
2026-05-06 16:27 41.36229 -73.78565 31837 ft 444 kts 185°
2026-05-06 16:27 41.30046 -73.78444 31843 ft 445 kts 185°
2026-05-06 16:28 41.23853 -73.78314 31854 ft 446 kts 185°
2026-05-06 16:28 41.17654 -73.78190 31873 ft 446 kts 185°
2026-05-06 16:29 41.11441 -73.78079 31875 ft 447 kts 185°
2026-05-06 16:29 41.05232 -73.77960 31879 ft 447 kts 185°
2026-05-06 16:30 41.00046 -73.77855 31876 ft 448 kts 185°
2026-05-06 16:30 40.92753 -73.77711 31871 ft 449 kts 185°
2026-05-06 16:31 40.86687 -73.77596 31860 ft 449 kts 185°
2026-05-06 16:31 40.80429 -73.77472 31860 ft 451 kts 185°
2026-05-06 16:32 40.74148 -73.77348 31860 ft 452 kts 185°
2026-05-06 16:32 40.67859 -73.76569 31886 ft 464 kts 170°
2026-05-06 16:33 40.64791 -73.75118 31887 ft 472 kts 159°
2026-05-06 16:33 40.61928 -73.72924 31890 ft 480 kts 148°
2026-05-06 16:33 40.59381 -73.70051 31897 ft 487 kts 137°
2026-05-06 16:34 40.55158 -73.63020 31892 ft 491 kts 130°
2026-05-06 16:34 40.51003 -73.55810 31906 ft 492 kts 131°
2026-05-06 16:35 40.46859 -73.48662 31917 ft 491 kts 131°
2026-05-06 16:35 40.42727 -73.41537 31938 ft 491 kts 131°
2026-05-06 16:36 40.38592 -73.34413 31935 ft 490 kts 131°
2026-05-06 16:36 40.34452 -73.27301 31950 ft 490 kts 131°
2026-05-06 16:37 40.30306 -73.20210 31952 ft 489 kts 131°
2026-05-06 16:37 40.26157 -73.13175 31951 ft 487 kts 131°
2026-05-06 16:38 40.22160 -73.06000 31957 ft 489 kts 127°
2026-05-06 16:38 40.18407 -72.98574 31968 ft 489 kts 126°
2026-05-06 16:39 40.14666 -72.91139 31968 ft 488 kts 127°
2026-05-06 16:39 40.10866 -72.83811 31978 ft 487 kts 128°
2026-05-06 16:40 40.07020 -72.76525 31978 ft 487 kts 128°
2026-05-06 16:40 40.03190 -72.69237 31988 ft 486 kts 127°
2026-05-06 16:41 39.99380 -72.61943 31986 ft 486 kts 127°
2026-05-06 16:41 39.95557 -72.54671 31998 ft 486 kts 128°
2026-05-06 16:42 39.91722 -72.47417 32003 ft 485 kts 128°
2026-05-06 16:42 39.87896 -72.40176 32012 ft 485 kts 127°
2026-05-06 16:43 39.84069 -72.32946 32011 ft 485 kts 128°
2026-05-06 16:43 39.80241 -72.25733 32017 ft 484 kts 127°
2026-05-06 16:44 39.76409 -72.18528 32019 ft 484 kts 127°
2026-05-06 16:44 39.72574 -72.11346 32029 ft 484 kts 127°
2026-05-06 16:45 39.68730 -72.04159 32027 ft 484 kts 127°
2026-05-06 16:45 39.65540 -71.98207 32033 ft 483 kts 127°
2026-05-06 16:46 39.61697 -71.91048 32032 ft 483 kts 127°
2026-05-06 16:46 39.57848 -71.83896 32038 ft 483 kts 127°
2026-05-06 16:47 39.53958 -71.76815 32037 ft 481 kts 132°
2026-05-06 16:47 39.49045 -71.70997 32042 ft 472 kts 150°
2026-05-06 16:48 39.43191 -71.67377 32039 ft 464 kts 165°
2026-05-06 16:48 39.37098 -71.64663 32049 ft 464 kts 165°
2026-05-06 16:49 39.30996 -71.61923 32049 ft 464 kts 165°
2026-05-06 16:49 39.24903 -71.59192 32058 ft 464 kts 165°
2026-05-06 16:50 39.18917 -71.56050 32049 ft 469 kts 154°
2026-05-06 16:50 39.13411 -71.51475 32061 ft 471 kts 150°
2026-05-06 16:51 39.07913 -71.46876 32061 ft 471 kts 150°
2026-05-06 16:51 39.02404 -71.42304 32073 ft 471 kts 150°
2026-05-06 16:52 38.96889 -71.37724 32070 ft 471 kts 150°
2026-05-06 16:52 38.91386 -71.33146 32084 ft 471 kts 150°
2026-05-06 16:53 38.85882 -71.28562 32085 ft 471 kts 150°
2026-05-06 16:53 38.80379 -71.24005 32095 ft 471 kts 150°
2026-05-06 16:54 38.74869 -71.19459 32096 ft 471 kts 150°
2026-05-06 16:54 38.69357 -71.14911 32106 ft 471 kts 150°
2026-05-06 16:55 38.63855 -71.10378 32104 ft 470 kts 150°
2026-05-06 16:55 38.58351 -71.05860 32112 ft 470 kts 150°
2026-05-06 16:56 38.52845 -71.01348 32116 ft 470 kts 150°
2026-05-06 16:56 38.47338 -70.96835 32120 ft 469 kts 150°
2026-05-06 16:57 38.41845 -70.92349 32117 ft 469 kts 151°
2026-05-06 16:57 38.36353 -70.87858 32126 ft 469 kts 151°
2026-05-06 16:58 38.30865 -70.83385 32122 ft 468 kts 151°
2026-05-06 16:58 38.25371 -70.78918 32126 ft 468 kts 151°
2026-05-06 16:59 38.19882 -70.74475 32119 ft 467 kts 151°
2026-05-06 16:59 38.14398 -70.70042 32129 ft 467 kts 151°
2026-05-06 17:00 38.08911 -70.65608 32126 ft 467 kts 151°
2026-05-06 17:00 38.03431 -70.61176 32131 ft 467 kts 151°
2026-05-06 17:01 37.97854 -70.57003 32131 ft 463 kts 157°
2026-05-06 17:01 37.92082 -70.53374 32140 ft 463 kts 158°
2026-05-06 17:02 37.86313 -70.49761 32140 ft 462 kts 158°
2026-05-06 17:02 37.80536 -70.46147 32158 ft 463 kts 158°
2026-05-06 17:03 37.74740 -70.42519 32145 ft 462 kts 158°
2026-05-06 17:03 37.68988 -70.38914 32145 ft 462 kts 158°
2026-05-06 17:04 37.63260 -70.35343 32150 ft 461 kts 158°
2026-05-06 17:04 37.57473 -70.31738 32147 ft 461 kts 158°
2026-05-06 17:05 37.51709 -70.28155 32150 ft 462 kts 158°
2026-05-06 17:05 37.45947 -70.24582 32144 ft 462 kts 158°
2026-05-06 17:06 37.40187 -70.21013 32144 ft 462 kts 158°
2026-05-06 17:06 37.34421 -70.17451 32148 ft 462 kts 158°
2026-05-06 17:07 37.28651 -70.13886 32148 ft 462 kts 158°
2026-05-06 17:07 37.22873 -70.10320 32149 ft 462 kts 158°
2026-05-06 17:08 37.17100 -70.06769 32150 ft 462 kts 158°
2026-05-06 17:08 37.11318 -70.03219 32148 ft 462 kts 158°
2026-05-06 17:09 37.05539 -69.99682 32155 ft 463 kts 158°
2026-05-06 17:09 36.99752 -69.96142 32155 ft 463 kts 158°
2026-05-06 17:10 36.93959 -69.92597 32161 ft 463 kts 158°
2026-05-06 17:10 36.91066 -69.90830 31721 ft 465 kts 158°
2026-05-06 17:10 36.88156 -69.89057 31912 ft 466 kts 157°
2026-05-06 17:10 36.85238 -69.87284 32111 ft 467 kts 157°
2026-05-06 17:11 36.82302 -69.85499 32193 ft 472 kts 157°
2026-05-06 17:11 36.76304 -69.81852 32188 ft 486 kts 157°
2026-05-06 17:12 36.70148 -69.78108 32191 ft 498 kts 157°
2026-05-06 17:12 36.63841 -69.74285 32190 ft 509 kts 157°
2026-05-06 17:13 36.57445 -69.70417 32193 ft 512 kts 156°
2026-05-06 17:13 36.51037 -69.66539 32196 ft 512 kts 156°
2026-05-06 17:14 36.44585 -69.62649 32197 ft 512 kts 156°
2026-05-06 17:14 36.38161 -69.58798 32193 ft 512 kts 156°
2026-05-06 17:15 36.31748 -69.54947 32192 ft 512 kts 156°
2026-05-06 17:15 36.25326 -69.51102 32189 ft 512 kts 156°
2026-05-06 17:16 36.18908 -69.47262 32190 ft 512 kts 157°
2026-05-06 17:16 36.12208 -69.44476 32190 ft 506 kts 172°
2026-05-06 17:17 36.06489 -69.42944 32188 ft 506 kts 171°
2026-05-06 17:17 35.99606 -69.41100 32187 ft 506 kts 171°
2026-05-06 17:18 35.92713 -69.39240 32189 ft 507 kts 171°
2026-05-06 17:18 35.85816 -69.37386 32194 ft 507 kts 171°
2026-05-06 17:19 35.78922 -69.35538 32194 ft 507 kts 171°
2026-05-06 17:19 35.72015 -69.33682 32193 ft 507 kts 171°
2026-05-06 17:20 35.65113 -69.31832 32195 ft 508 kts 171°
2026-05-06 17:20 35.58196 -69.29987 32198 ft 508 kts 171°
2026-05-06 17:21 35.51286 -69.28145 32198 ft 508 kts 171°
2026-05-06 17:21 35.44361 -69.26302 32201 ft 509 kts 171°
2026-05-06 17:22 35.37448 -69.24476 32203 ft 509 kts 171°
2026-05-06 17:22 35.30524 -69.22643 32205 ft 509 kts 171°
2026-05-06 17:23 35.23598 -69.20801 32203 ft 509 kts 171°
2026-05-06 17:23 35.16674 -69.18970 32202 ft 509 kts 171°
2026-05-06 17:24 35.09751 -69.17149 32205 ft 510 kts 171°
2026-05-06 17:24 35.02815 -69.15321 32204 ft 510 kts 171°
2026-05-06 17:25 34.95870 -69.13498 32207 ft 510 kts 171°
2026-05-06 17:25 34.88882 -69.11668 32207 ft 510 kts 171°
2026-05-06 17:26 34.81942 -69.09855 32205 ft 510 kts 171°
2026-05-06 17:26 34.75002 -69.08039 32204 ft 510 kts 171°
2026-05-06 17:27 34.68071 -69.06224 32203 ft 510 kts 171°
2026-05-06 17:27 34.61131 -69.04416 32202 ft 510 kts 171°
2026-05-06 17:28 34.54189 -69.02614 32206 ft 510 kts 171°
2026-05-06 17:28 34.47234 -69.00808 32206 ft 511 kts 171°
2026-05-06 17:29 34.40285 -68.99013 32208 ft 511 kts 171°
2026-05-06 17:29 34.33323 -68.97218 32207 ft 511 kts 171°
2026-05-06 17:30 34.26358 -68.95416 32206 ft 511 kts 171°
2026-05-06 17:30 34.19405 -68.93620 32208 ft 511 kts 171°
2026-05-06 17:31 34.12439 -68.91828 32210 ft 512 kts 171°
2026-05-06 17:31 34.05475 -68.90041 32214 ft 512 kts 171°
2026-05-06 17:32 33.98512 -68.88253 32216 ft 512 kts 171°
2026-05-06 17:32 33.91541 -68.86466 32219 ft 512 kts 171°
2026-05-06 17:33 33.84569 -68.84677 32217 ft 512 kts 171°
2026-05-06 17:33 33.77602 -68.82900 32222 ft 512 kts 171°
2026-05-06 17:34 33.70625 -68.81133 32219 ft 512 kts 171°
2026-05-06 17:34 33.63659 -68.79363 32225 ft 512 kts 171°
2026-05-06 17:35 33.56676 -68.77580 32224 ft 512 kts 171°
2026-05-06 17:35 33.49706 -68.75815 32226 ft 512 kts 171°
2026-05-06 17:36 33.39248 -68.73173 32229 ft 512 kts 171°
2026-05-06 17:36 33.32280 -68.71413 32223 ft 512 kts 171°
2026-05-06 17:37 33.25306 -68.69652 32223 ft 512 kts 171°
2026-05-06 17:37 33.18328 -68.67905 32218 ft 512 kts 171°
2026-05-06 17:38 33.11359 -68.66156 32218 ft 512 kts 171°
2026-05-06 17:38 33.04396 -68.64398 32217 ft 512 kts 171°
2026-05-06 17:39 32.97438 -68.62654 32218 ft 512 kts 171°
2026-05-06 17:39 32.90416 -68.60904 32221 ft 511 kts 171°
2026-05-06 17:40 32.83448 -68.59171 32213 ft 511 kts 171°
2026-05-06 17:40 32.76486 -68.57436 32211 ft 511 kts 171°
2026-05-06 17:41 32.69514 -68.55703 32211 ft 511 kts 171°
2026-05-06 17:41 32.62549 -68.53972 32209 ft 511 kts 171°
2026-05-06 17:42 32.55585 -68.52233 32211 ft 511 kts 171°
2026-05-06 17:42 32.48624 -68.50509 32210 ft 511 kts 171°
2026-05-06 17:43 32.41657 -68.48793 32209 ft 511 kts 171°
2026-05-06 17:43 32.34700 -68.47079 32203 ft 511 kts 171°
2026-05-06 17:44 32.27737 -68.45361 32202 ft 511 kts 171°
2026-05-06 17:44 32.20776 -68.43653 32200 ft 511 kts 171°
2026-05-06 17:45 32.13823 -68.41942 32201 ft 511 kts 171°
2026-05-06 17:45 32.06870 -68.40230 32199 ft 510 kts 171°
2026-05-06 17:46 31.99911 -68.38523 32199 ft 510 kts 171°
2026-05-06 17:46 31.92966 -68.36822 32197 ft 510 kts 171°
2026-05-06 17:47 31.86013 -68.35126 32196 ft 510 kts 171°
2026-05-06 17:47 31.79054 -68.33432 32204 ft 510 kts 171°
2026-05-06 17:48 31.72049 -68.31734 32206 ft 511 kts 171°
2026-05-06 17:48 31.65092 -68.30041 32208 ft 511 kts 171°
2026-05-06 17:49 31.58140 -68.28351 32210 ft 510 kts 171°
2026-05-06 17:49 31.52354 -68.26947 32205 ft 510 kts 171°
2026-05-06 17:50 31.45392 -68.25271 32209 ft 510 kts 171°
2026-05-06 17:50 31.38439 -68.23594 32205 ft 510 kts 171°
2026-05-06 17:51 31.31489 -68.21908 32204 ft 510 kts 171°
2026-05-06 17:51 31.24523 -68.20230 32197 ft 510 kts 171°
2026-05-06 17:52 31.17576 -68.18565 32204 ft 510 kts 171°
2026-05-06 17:52 31.10618 -68.16900 32201 ft 510 kts 171°
2026-05-06 17:53 31.03669 -68.15227 32209 ft 510 kts 171°
2026-05-06 17:53 30.96726 -68.13554 32210 ft 510 kts 171°
2026-05-06 17:54 30.89778 -68.11895 32207 ft 509 kts 171°
2026-05-06 17:54 30.82832 -68.10245 32206 ft 509 kts 171°
2026-05-06 17:55 30.75894 -68.08593 32207 ft 509 kts 171°
2026-05-06 17:55 30.68952 -68.06935 32201 ft 509 kts 171°
2026-05-06 17:56 30.62015 -68.05287 32199 ft 508 kts 171°
2026-05-06 17:56 30.55091 -68.03638 32197 ft 508 kts 171°
2026-05-06 17:57 30.48167 -68.01996 32195 ft 508 kts 171°
2026-05-06 17:57 30.41249 -68.00359 32190 ft 507 kts 171°
2026-05-06 17:58 30.34325 -67.98727 32192 ft 507 kts 171°
2026-05-06 17:58 30.27406 -67.97095 32193 ft 507 kts 171°
2026-05-06 17:59 30.20493 -67.95466 32195 ft 507 kts 171°
2026-05-06 17:59 30.13568 -67.93835 32198 ft 507 kts 171°
2026-05-06 18:00 30.06604 -67.92200 32202 ft 507 kts 171°
2026-05-06 18:00 29.99699 -67.90586 32200 ft 507 kts 171°
2026-05-06 18:01 29.92831 -67.88976 32196 ft 506 kts 171°
2026-05-06 18:01 29.85889 -67.87354 32197 ft 506 kts 171°
2026-05-06 18:02 29.78991 -67.85740 32194 ft 506 kts 171°
2026-05-06 18:02 29.72093 -67.84132 32189 ft 506 kts 171°
2026-05-06 18:03 29.65199 -67.82526 32190 ft 505 kts 171°
2026-05-06 18:03 29.58311 -67.80924 32191 ft 505 kts 171°
2026-05-06 18:04 29.51432 -67.79320 32187 ft 504 kts 171°
2026-05-06 18:04 29.44553 -67.77726 32185 ft 504 kts 171°
2026-05-06 18:05 29.37685 -67.76139 32185 ft 504 kts 171°
2026-05-06 18:05 29.30811 -67.74554 32187 ft 503 kts 172°
2026-05-06 18:06 29.23954 -67.72975 32184 ft 503 kts 171°
2026-05-06 18:06 29.17085 -67.71384 32185 ft 503 kts 171°
2026-05-06 18:07 29.10229 -67.69802 32185 ft 502 kts 171°
2026-05-06 18:07 29.03385 -67.68221 32182 ft 502 kts 171°
2026-05-06 18:08 28.96535 -67.66647 32184 ft 502 kts 171°
2026-05-06 18:08 28.89699 -67.65085 32178 ft 501 kts 172°
2026-05-06 18:09 28.82860 -67.63520 32177 ft 501 kts 171°
2026-05-06 18:09 28.76025 -67.61948 32182 ft 500 kts 171°
2026-05-06 18:10 28.69200 -67.60383 32174 ft 500 kts 172°
2026-05-06 18:10 28.62384 -67.58831 32173 ft 499 kts 172°
2026-05-06 18:11 28.55525 -67.57273 32167 ft 499 kts 172°
2026-05-06 18:11 28.48724 -67.55727 32163 ft 498 kts 172°
2026-05-06 18:12 28.41927 -67.54184 32156 ft 498 kts 172°
2026-05-06 18:12 28.35144 -67.52639 32159 ft 497 kts 172°
2026-05-06 18:13 28.28358 -67.51093 32151 ft 497 kts 172°
2026-05-06 18:13 28.21577 -67.49563 32157 ft 497 kts 172°
2026-05-06 18:14 28.14797 -67.48034 32152 ft 497 kts 172°
2026-05-06 18:14 28.08018 -67.46502 32154 ft 496 kts 172°
2026-05-06 18:15 28.01241 -67.44978 32146 ft 496 kts 172°
2026-05-06 18:15 27.94472 -67.43447 32146 ft 495 kts 172°
2026-05-06 18:16 27.87709 -67.41933 32150 ft 495 kts 172°
2026-05-06 18:16 27.80956 -67.40419 32145 ft 495 kts 172°
2026-05-06 18:17 27.74202 -67.38903 32148 ft 494 kts 172°
2026-05-06 18:17 27.67452 -67.37385 32149 ft 494 kts 172°
2026-05-06 18:18 27.60705 -67.35869 32157 ft 494 kts 172°
2026-05-06 18:18 27.53961 -67.34364 32148 ft 494 kts 172°
2026-05-06 18:19 27.47228 -67.32868 32148 ft 493 kts 172°
2026-05-06 18:19 27.40492 -67.31361 32153 ft 493 kts 172°
2026-05-06 18:20 27.33761 -67.29857 32146 ft 493 kts 172°
2026-05-06 18:20 27.27036 -67.28363 32148 ft 492 kts 172°
2026-05-06 18:21 27.20314 -67.26874 32141 ft 492 kts 172°
2026-05-06 18:21 27.13601 -67.25383 32140 ft 491 kts 172°
2026-05-06 18:22 27.06896 -67.23898 32132 ft 491 kts 172°
2026-05-06 18:22 27.00196 -67.22406 32136 ft 491 kts 172°
2026-05-06 18:23 26.94580 -67.21164 32135 ft 491 kts 172°
2026-05-06 18:23 26.87884 -67.19696 32131 ft 490 kts 172°
2026-05-06 18:24 26.81191 -67.18220 32131 ft 490 kts 172°
2026-05-06 18:24 26.74497 -67.16742 32127 ft 490 kts 172°
2026-05-06 18:25 26.67815 -67.15269 32122 ft 490 kts 172°
2026-05-06 18:25 26.61122 -67.13796 32123 ft 490 kts 172°
2026-05-06 18:26 26.54425 -67.12327 32121 ft 490 kts 172°
2026-05-06 18:26 26.47735 -67.10867 32113 ft 489 kts 172°
2026-05-06 18:27 26.41052 -67.09400 32116 ft 489 kts 172°
2026-05-06 18:27 26.34366 -67.07934 32117 ft 489 kts 172°
2026-05-06 18:28 26.27685 -67.06486 32116 ft 489 kts 172°
2026-05-06 18:28 26.21008 -67.05029 32116 ft 489 kts 172°
2026-05-06 18:29 26.14333 -67.03566 32117 ft 488 kts 172°
2026-05-06 18:29 26.07659 -67.02109 32118 ft 488 kts 172°
2026-05-06 18:30 26.00997 -67.00664 32122 ft 488 kts 172°
2026-05-06 18:30 25.94335 -66.99221 32118 ft 488 kts 172°
2026-05-06 18:31 25.87629 -66.97759 32118 ft 487 kts 172°
2026-05-06 18:31 25.81018 -66.96327 32114 ft 487 kts 172°
2026-05-06 18:32 25.74325 -66.94886 32124 ft 487 kts 172°
2026-05-06 18:32 25.67674 -66.93439 32122 ft 487 kts 172°
2026-05-06 18:33 25.61030 -66.91999 32123 ft 486 kts 172°
2026-05-06 18:33 25.54389 -66.90575 32121 ft 486 kts 172°
2026-05-06 18:34 25.47750 -66.89157 32123 ft 486 kts 172°
2026-05-06 18:34 25.41114 -66.87726 32129 ft 486 kts 172°
2026-05-06 18:35 25.34483 -66.86287 32128 ft 486 kts 172°
2026-05-06 18:35 25.27851 -66.84862 32132 ft 485 kts 172°
2026-05-06 18:36 25.21218 -66.83446 32133 ft 485 kts 172°
2026-05-06 18:36 25.14585 -66.82020 32135 ft 485 kts 172°
2026-05-06 18:37 25.07958 -66.80598 32138 ft 485 kts 172°
2026-05-06 18:37 25.01329 -66.79186 32138 ft 485 kts 172°
2026-05-06 18:38 24.94710 -66.77776 32140 ft 484 kts 172°
2026-05-06 18:38 24.88090 -66.76363 32141 ft 484 kts 172°
2026-05-06 18:39 24.81479 -66.74950 32134 ft 484 kts 172°
2026-05-06 18:40 24.71567 -66.72844 32131 ft 483 kts 172°
2026-05-06 18:40 24.64972 -66.71445 32134 ft 483 kts 172°
2026-05-06 18:41 24.58375 -66.70046 32133 ft 482 kts 172°
2026-05-06 18:41 24.51786 -66.68643 32130 ft 482 kts 172°
2026-05-06 18:42 24.45202 -66.67249 32125 ft 481 kts 172°
2026-05-06 18:42 24.38633 -66.65863 32124 ft 481 kts 172°
2026-05-06 18:43 24.32061 -66.64473 32122 ft 481 kts 172°
2026-05-06 18:43 24.25492 -66.63090 32119 ft 480 kts 172°
2026-05-06 18:44 24.18935 -66.61702 32114 ft 480 kts 172°
2026-05-06 18:44 24.12376 -66.60316 32113 ft 480 kts 172°
2026-05-06 18:45 24.05816 -66.58941 32114 ft 480 kts 172°
2026-05-06 18:45 23.99218 -66.57556 32112 ft 480 kts 172°
2026-05-06 18:46 23.92649 -66.56173 32116 ft 480 kts 172°
2026-05-06 18:46 23.86121 -66.54803 32122 ft 480 kts 172°
2026-05-06 18:47 23.79514 -66.53422 32124 ft 480 kts 172°
2026-05-06 18:47 23.72951 -66.52041 32123 ft 480 kts 172°
2026-05-06 18:48 23.66395 -66.50666 32120 ft 480 kts 172°
2026-05-06 18:48 23.59830 -66.49305 32117 ft 480 kts 172°
2026-05-06 18:49 23.53274 -66.47936 32114 ft 480 kts 172°
2026-05-06 18:49 23.46719 -66.46565 32119 ft 480 kts 172°
2026-05-06 18:50 23.40141 -66.45191 32123 ft 481 kts 172°
2026-05-06 18:50 23.33571 -66.43827 32121 ft 481 kts 172°
2026-05-06 18:51 23.27000 -66.42466 32123 ft 481 kts 172°
2026-05-06 18:51 23.20428 -66.41093 32121 ft 481 kts 172°
2026-05-06 18:52 23.13858 -66.39722 32121 ft 481 kts 172°
2026-05-06 18:52 23.07278 -66.38362 32117 ft 481 kts 172°
2026-05-06 18:53 23.00702 -66.37009 32119 ft 481 kts 172°
2026-05-06 18:53 22.94126 -66.35647 32118 ft 481 kts 171°
2026-05-06 18:54 22.87545 -66.34282 32118 ft 481 kts 171°
2026-05-06 18:54 22.80961 -66.32925 32119 ft 482 kts 172°
2026-05-06 18:55 22.74370 -66.31570 32120 ft 482 kts 172°
2026-05-06 18:55 22.67780 -66.30206 32117 ft 482 kts 171°
2026-05-06 18:56 22.61192 -66.28850 32114 ft 482 kts 172°
2026-05-06 18:56 22.55667 -66.27717 32112 ft 482 kts 172°
2026-05-06 18:57 22.49082 -66.26367 32108 ft 482 kts 172°
2026-05-06 18:57 22.42501 -66.25019 32106 ft 481 kts 172°
2026-05-06 18:58 22.35918 -66.23666 32105 ft 481 kts 171°
2026-05-06 18:58 22.29330 -66.22309 32102 ft 481 kts 172°
2026-05-06 18:59 22.22763 -66.20967 32100 ft 481 kts 172°
2026-05-06 18:59 22.16188 -66.19619 32096 ft 481 kts 172°
2026-05-06 19:00 22.09614 -66.18273 32099 ft 481 kts 172°
2026-05-06 19:00 22.03046 -66.16934 32100 ft 481 kts 172°
2026-05-06 19:01 21.96466 -66.15601 32105 ft 480 kts 172°
2026-05-06 19:01 21.89907 -66.14265 32100 ft 480 kts 172°
2026-05-06 19:02 21.83346 -66.12919 32100 ft 480 kts 172°
2026-05-06 19:02 21.76790 -66.11589 32092 ft 479 kts 172°
2026-05-06 19:03 21.70232 -66.10270 32096 ft 479 kts 172°
2026-05-06 19:03 21.63679 -66.08940 32101 ft 479 kts 172°
2026-05-06 19:04 21.57131 -66.07603 32101 ft 479 kts 172°
2026-05-06 19:04 21.50595 -66.06228 32092 ft 480 kts 168°
2026-05-06 19:05 21.44441 -66.03422 32090 ft 484 kts 149°
2026-05-06 19:05 21.39204 -65.98862 32092 ft 486 kts 140°
2026-05-06 19:06 21.34137 -65.94061 32089 ft 486 kts 140°
2026-05-06 19:06 21.29023 -65.89228 32089 ft 486 kts 140°
2026-05-06 19:07 21.23950 -65.84430 32088 ft 487 kts 140°
2026-05-06 19:07 21.18878 -65.79631 32083 ft 487 kts 140°
2026-05-06 19:08 21.13797 -65.74827 32084 ft 487 kts 140°
2026-05-06 19:08 21.08708 -65.70034 32086 ft 487 kts 140°
2026-05-06 19:09 21.03633 -65.65245 32086 ft 487 kts 140°
2026-05-06 19:09 20.98548 -65.60456 32083 ft 487 kts 140°
2026-05-06 19:10 20.93458 -65.55668 32086 ft 487 kts 140°
2026-05-06 19:10 20.88372 -65.50898 32084 ft 487 kts 140°
2026-05-06 19:11 20.83280 -65.46124 32086 ft 486 kts 140°
2026-05-06 19:11 20.78197 -65.41350 32084 ft 486 kts 140°
2026-05-06 19:12 20.73110 -65.36573 32087 ft 486 kts 140°
2026-05-06 19:12 20.68045 -65.31824 32084 ft 485 kts 141°
2026-05-06 19:13 20.62958 -65.27067 32089 ft 485 kts 141°
2026-05-06 19:13 20.57882 -65.22326 32087 ft 485 kts 141°
2026-05-06 19:14 20.52804 -65.17587 32087 ft 484 kts 141°
2026-05-06 19:14 20.47733 -65.12858 32088 ft 484 kts 141°
2026-05-06 19:15 20.42662 -65.08128 32087 ft 484 kts 141°
2026-05-06 19:15 20.37604 -65.03409 32088 ft 483 kts 141°
2026-05-06 19:16 20.32540 -64.98701 32085 ft 483 kts 141°
2026-05-06 19:16 20.27471 -64.93996 32082 ft 483 kts 141°
2026-05-06 19:17 20.22409 -64.89294 32075 ft 483 kts 141°
2026-05-06 19:17 20.17346 -64.84595 32075 ft 482 kts 141°
2026-05-06 19:18 20.12282 -64.79911 32072 ft 482 kts 141°
2026-05-06 19:18 20.07224 -64.75231 32074 ft 482 kts 141°
2026-05-06 19:19 20.02169 -64.70545 32073 ft 482 kts 141°
2026-05-06 19:19 19.97077 -64.65831 32071 ft 482 kts 141°
2026-05-06 19:20 19.92016 -64.61151 32071 ft 482 kts 141°
2026-05-06 19:20 19.86993 -64.56504 32071 ft 482 kts 141°
2026-05-06 19:21 19.81901 -64.51811 32067 ft 482 kts 141°
2026-05-06 19:21 19.76834 -64.47157 32070 ft 481 kts 141°
2026-05-06 19:22 19.71778 -64.42501 32069 ft 481 kts 141°
2026-05-06 19:22 19.66718 -64.37843 32067 ft 481 kts 141°
2026-05-06 19:23 19.61652 -64.33191 32067 ft 481 kts 141°
2026-05-06 19:23 19.56596 -64.28551 32066 ft 481 kts 141°
2026-05-06 19:24 19.51534 -64.23917 32064 ft 481 kts 141°
2026-05-06 19:24 19.46471 -64.19282 32064 ft 480 kts 141°
2026-05-06 19:25 19.41422 -64.14651 32060 ft 480 kts 141°
2026-05-06 19:25 19.36371 -64.10019 32063 ft 480 kts 141°
2026-05-06 19:26 19.31312 -64.05394 32060 ft 480 kts 141°
2026-05-06 19:26 19.26254 -64.00774 32061 ft 480 kts 141°
2026-05-06 19:27 19.21200 -63.96160 32058 ft 480 kts 141°
2026-05-06 19:27 19.16140 -63.91549 32053 ft 480 kts 141°
2026-05-06 19:28 19.11090 -63.86946 32052 ft 480 kts 141°
2026-05-06 19:28 19.06036 -63.82336 32054 ft 480 kts 141°
2026-05-06 19:29 19.01828 -63.78510 32052 ft 479 kts 141°
2026-05-06 19:29 18.96730 -63.73882 32054 ft 479 kts 141°
2026-05-06 19:30 18.91674 -63.69290 32066 ft 479 kts 141°
2026-05-06 19:30 18.86619 -63.64702 32063 ft 479 kts 141°
2026-05-06 19:31 18.81564 -63.60120 32055 ft 479 kts 141°
2026-05-06 19:31 18.73976 -63.53244 32060 ft 479 kts 141°
2026-05-06 19:32 18.68914 -63.48669 32064 ft 479 kts 141°
2026-05-06 19:32 18.63853 -63.44091 32071 ft 479 kts 141°
2026-05-06 19:33 18.58801 -63.39516 32072 ft 479 kts 141°
2026-05-06 19:33 18.53736 -63.34948 32077 ft 479 kts 141°
2026-05-06 19:34 18.48680 -63.30390 32068 ft 478 kts 141°
2026-05-06 19:34 18.43617 -63.25835 32078 ft 478 kts 141°
2026-05-06 19:35 18.38564 -63.21284 32072 ft 478 kts 141°
2026-05-06 19:35 18.33510 -63.16742 32064 ft 478 kts 141°
2026-05-06 19:36 18.28456 -63.12202 32064 ft 477 kts 141°
2026-05-06 19:36 18.23417 -63.07660 32069 ft 477 kts 142°
2026-05-06 19:37 18.18370 -63.03119 32064 ft 477 kts 142°
2026-05-06 19:37 18.13316 -62.98594 32070 ft 477 kts 142°
2026-05-06 19:38 18.08265 -62.94073 32061 ft 476 kts 142°
2026-05-06 19:38 18.03224 -62.89557 32059 ft 476 kts 142°
2026-05-06 19:39 17.98152 -62.85014 32067 ft 476 kts 142°
2026-05-06 19:39 17.93107 -62.80504 32058 ft 476 kts 142°
2026-05-06 19:40 17.88064 -62.75999 32068 ft 475 kts 142°
2026-05-06 19:40 17.83018 -62.71503 32064 ft 475 kts 142°
2026-05-06 19:41 17.77985 -62.67015 32065 ft 475 kts 142°
2026-05-06 19:41 17.72948 -62.62522 32065 ft 475 kts 142°
2026-05-06 19:42 17.67917 -62.58032 32070 ft 475 kts 142°
2026-05-06 19:42 17.63332 -62.53036 32068 ft 480 kts 128°
2026-05-06 19:43 17.59422 -62.47357 32062 ft 480 kts 129°
2026-05-06 19:43 17.55491 -62.41701 32060 ft 480 kts 129°
2026-05-06 19:44 17.51557 -62.36044 32059 ft 480 kts 129°
2026-05-06 19:44 17.47630 -62.30371 32054 ft 480 kts 129°
2026-05-06 19:45 17.43714 -62.24705 32054 ft 481 kts 129°
2026-05-06 19:45 17.39783 -62.19046 32048 ft 481 kts 129°
2026-05-06 19:46 17.35834 -62.13385 32045 ft 481 kts 129°
2026-05-06 19:46 17.31898 -62.07722 32047 ft 481 kts 129°
2026-05-06 19:47 17.27964 -62.02063 32054 ft 481 kts 129°
2026-05-06 19:47 17.24028 -61.96403 32057 ft 481 kts 129°
2026-05-06 19:48 17.20091 -61.90759 32065 ft 481 kts 129°
2026-05-06 19:48 17.16113 -61.85128 32060 ft 480 kts 133°
2026-05-06 19:49 17.11202 -61.80558 32062 ft 470 kts 152°
2026-05-06 19:49 17.05315 -61.77816 32059 ft 460 kts 168°
2026-05-06 19:50 16.99156 -61.75948 32061 ft 461 kts 167°
2026-05-06 19:50 16.92989 -61.74075 32057 ft 461 kts 167°
2026-05-06 19:51 16.86822 -61.72209 32056 ft 462 kts 167°
2026-05-06 19:51 16.80643 -61.70337 32057 ft 462 kts 167°
2026-05-06 19:52 16.74465 -61.68475 32051 ft 462 kts 167°
2026-05-06 19:52 16.68294 -61.66611 32051 ft 462 kts 167°
2026-05-06 19:53 16.62078 -61.64734 32049 ft 462 kts 167°
2026-05-06 19:53 16.55939 -61.62875 32047 ft 462 kts 167°
2026-05-06 19:54 16.49723 -61.60990 32045 ft 462 kts 167°
2026-05-06 19:54 16.43545 -61.59129 32041 ft 462 kts 167°
2026-05-06 19:55 16.37354 -61.57277 32036 ft 462 kts 167°
2026-05-06 19:55 16.31161 -61.55421 32035 ft 463 kts 167°
2026-05-06 19:56 16.24949 -61.53769 32032 ft 459 kts 175°
2026-05-06 19:56 16.18623 -61.52789 32034 ft 459 kts 175°
2026-05-06 19:57 16.12301 -61.51810 32036 ft 459 kts 175°
2026-05-06 19:57 16.05965 -61.50825 31775 ft 461 kts 175°
2026-05-06 19:58 16.02781 -61.50332 31528 ft 462 kts 175°
2026-05-06 19:58 15.99593 -61.49839 31306 ft 464 kts 175°
2026-05-06 19:58 15.96404 -61.49346 31073 ft 465 kts 174°
2026-05-06 19:58 15.93195 -61.48851 30837 ft 466 kts 174°
2026-05-06 19:59 15.89983 -61.48357 30606 ft 468 kts 174°
2026-05-06 19:59 15.86759 -61.47860 30358 ft 468 kts 174°
2026-05-06 19:59 15.83522 -61.47361 29286 ft 475 kts 174°
2026-05-06 19:59 15.80223 -61.46851 28221 ft 481 kts 173°
2026-05-06 20:00 15.76892 -61.46333 27161 ft 486 kts 173°
2026-05-06 20:00 15.73522 -61.45811 26031 ft 493 kts 173°
2026-05-06 20:00 15.70141 -61.45291 25339 ft 489 kts 173°
2026-05-06 20:00 15.66779 -61.44771 24532 ft 489 kts 173°
2026-05-06 20:01 15.63423 -61.44250 23739 ft 488 kts 172°
2026-05-06 20:01 15.61202 -61.43906 23119 ft 488 kts 172°
2026-05-06 20:01 15.57858 -61.43389 22367 ft 483 kts 172°
2026-05-06 20:01 15.54537 -61.42877 21633 ft 479 kts 171°
2026-05-06 20:02 15.51266 -61.42371 20924 ft 474 kts 171°
2026-05-06 20:02 15.48008 -61.41869 20219 ft 470 kts 171°
2026-05-06 20:02 15.44737 -61.41368 19447 ft 467 kts 171°
2026-05-06 20:02 15.41538 -61.40880 18784 ft 463 kts 171°
2026-05-06 20:03 15.38407 -61.40396 18118 ft 460 kts 170°
2026-05-06 20:03 15.35224 -61.39855 17480 ft 454 kts 169°
2026-05-06 20:03 15.32137 -61.39285 16905 ft 447 kts 168°
2026-05-06 20:03 15.29101 -61.38703 16322 ft 441 kts 168°
2026-05-06 20:04 15.26105 -61.38129 15805 ft 434 kts 168°
2026-05-06 20:04 15.23159 -61.37573 15277 ft 428 kts 168°
2026-05-06 20:04 15.20253 -61.37030 14775 ft 421 kts 169°
2026-05-06 20:04 15.17381 -61.36499 14260 ft 416 kts 169°
2026-05-06 20:05 15.14551 -61.35980 13721 ft 411 kts 169°
2026-05-06 20:05 15.11748 -61.35467 13170 ft 406 kts 168°
2026-05-06 20:05 15.08979 -61.34962 12605 ft 402 kts 168°
2026-05-06 20:05 15.06243 -61.34464 12045 ft 398 kts 168°
2026-05-06 20:06 15.03521 -61.33967 11449 ft 395 kts 168°
2026-05-06 20:06 15.00850 -61.33477 11156 ft 384 kts 168°
2026-05-06 20:06 14.98275 -61.33005 11033 ft 368 kts 168°
2026-05-06 20:06 14.95806 -61.32553 10918 ft 351 kts 168°
2026-05-06 20:07 14.93511 -61.32133 10720 ft 321 kts 168°
2026-05-06 20:07 14.91383 -61.31743 10323 ft 303 kts 168°
2026-05-06 20:07 14.89329 -61.31323 9991 ft 298 kts 166°
2026-05-06 20:07 14.87313 -61.30922 9874 ft 294 kts 168°
2026-05-06 20:08 14.85296 -61.30586 9744 ft 293 kts 169°
2026-05-06 20:08 14.83277 -61.30315 9616 ft 292 kts 171°
2026-05-06 20:08 14.81257 -61.30089 9488 ft 292 kts 172°
2026-05-06 20:08 14.79242 -61.29892 9363 ft 291 kts 173°
2026-05-06 20:09 14.77221 -61.29707 8967 ft 292 kts 173°
2026-05-06 20:09 14.75194 -61.29526 8554 ft 291 kts 173°
2026-05-06 20:09 14.73176 -61.29346 8180 ft 288 kts 173°
2026-05-06 20:09 14.71196 -61.29169 7625 ft 282 kts 173°
2026-05-06 20:10 14.69203 -61.28990 7153 ft 286 kts 173°
2026-05-06 20:10 14.67251 -61.28814 6789 ft 284 kts 173°
2026-05-06 20:10 14.65275 -61.28632 6397 ft 283 kts 173°
2026-05-06 20:10 14.63338 -61.28454 5830 ft 278 kts 173°
2026-05-06 20:11 14.61432 -61.28280 5340 ft 274 kts 172°
2026-05-06 20:11 14.59608 -61.27862 4903 ft 261 kts 155°
2026-05-06 20:11 14.58096 -61.26999 4637 ft 239 kts 139°
2026-05-06 20:11 14.56893 -61.25781 4530 ft 254 kts 125°
2026-05-06 20:12 14.55986 -61.24180 4309 ft 258 kts 111°
2026-05-06 20:12 14.55545 -61.22381 3830 ft 259 kts 94°
2026-05-06 20:12 14.55622 -61.20556 3488 ft 257 kts 80°
2026-05-06 20:12 14.55940 -61.18727 3172 ft 254 kts 80°
2026-05-06 20:13 14.56243 -61.16975 2853 ft 240 kts 80°
2026-05-06 20:13 14.56523 -61.15350 2557 ft 220 kts 80°
2026-05-06 20:13 14.56778 -61.13870 2296 ft 201 kts 81°
2026-05-06 20:13 14.57015 -61.12490 2041 ft 190 kts 80°
2026-05-06 20:14 14.57237 -61.11195 1815 ft 175 kts 79°
2026-05-06 20:14 14.57441 -61.10011 1608 ft 159 kts 79°
2026-05-06 20:14 14.57623 -61.08954 1399 ft 142 kts 79°
2026-05-06 20:14 14.57790 -61.07978 1218 ft 137 kts 80°
2026-05-06 20:15 14.57956 -61.07010 1028 ft 139 kts 81°
2026-05-06 20:15 14.58132 -61.06041 830 ft 135 kts 82°
2026-05-06 20:15 14.58289 -61.05079 709 ft 134 kts 79°
2026-05-06 20:15 14.58438 -61.04125 547 ft 136 kts 78°
2026-05-06 20:16 14.58611 -61.03184 324 ft 135 kts 79°
2026-05-06 20:16 14.58783 -61.02226 191 ft 135 kts 81°
2026-05-06 20:16 14.58943 -61.01280 41 ft 128 kts 81°
2026-05-06 20:16 14.59081 -61.00461 18 ft 97 kts 80°
2026-05-06 20:17 14.59165 -60.99971 21 ft 44 kts 79°
2026-05-06 20:17 14.59198 -60.99797 20 ft 6 kts 82°
2026-05-06 20:17 14.59204 -60.99757 21 ft 4 kts 79°
2026-05-06 20:17 14.59235 -60.99686 21 ft 14 kts 44°
2026-05-06 20:18 14.59325 -60.99670 21 ft 13 kts 350°
2026-05-06 20:18 14.59399 -60.99710 21 ft 11 kts 295°
2026-05-06 20:18 14.59389 -60.99786 21 ft 10 kts 258°
2026-05-06 20:18 14.59378 -60.99856 23 ft 10 kts 262°
2026-05-06 20:19 14.59369 -60.99922 21 ft 9 kts 261°
2026-05-06 20:19 14.59361 -60.99982 20 ft 8 kts 266°
2026-05-06 20:19 14.59368 -61.00038 22 ft 7 kts 283°
2026-05-06 20:19 14.59382 -61.00089 20 ft 8 kts 288°
2026-05-06 20:20 14.59404 -61.00141 20 ft 8 kts 297°
2026-05-06 20:20 14.59431 -61.00185 20 ft 7 kts 307°
2026-05-06 20:20 14.59462 -61.00214 20 ft 4 kts 346°
2026-05-06 20:20 14.59482 -61.00196 22 ft 4 kts 50°
2026-05-06 20:21 14.59498 -61.00177 20 ft 3 kts 51°
2026-05-06 20:21 14.59513 -61.00158 20 ft 3 kts 49°
2026-05-06 20:21 14.59528 -61.00140 20 ft 3 kts 49°
2026-05-06 20:21 14.59530 -61.00137 20 ft 0 kts 49°